ATLANTIC CITY MARINA - NJ SAFETYNET current weather conditions

sailwx.info

Wind from 162 at 4 knots gusting 9

Air temperature 27.8° C

Last reported at 2020-Jul-06 16:05 UTC.
Time now 2020-Jul-06 17:01 UTC

Location: N 39°23' W 074°25'.
View on Google Maps.

See reports from other nearby stations

  
Tides and Currents Weather Stations Pressure Air Temp Water Temp Dewpoint Dewpoint Depression Visibility Wind Speed Wind Dir Waves Ship Positions
date/time (UTC)wind fromknots sea level pressurealtimeterstation pressurevisibilityair tempwater tempwave heightnotes
2020-Jul-06 16:05 162 4 gusting 9 27.8
2020-Jul-06 16:00 183 7 gusting 11 27.8
2020-Jul-06 15:50 202 6 gusting 8 28.3
2020-Jul-06 15:45 203 4 gusting 6 28.3
2020-Jul-06 15:40 193 5 gusting 7 28.3
2020-Jul-06 15:35 196 3 gusting 7 27.8
2020-Jul-06 15:30 195 3 gusting 6 27.8
2020-Jul-06 15:25 172 5 gusting 7 28.3
2020-Jul-06 15:20 210 5 gusting 7 27.8
2020-Jul-06 15:15 200 6 gusting 6 28.3
2020-Jul-06 15:10 208 6 gusting 6 27.8
2020-Jul-06 15:05 179 5 gusting 5 27.8
2020-Jul-06 15:00 200 4 gusting 5 27.8
2020-Jul-06 14:55 196 2 gusting 6 27.2
2020-Jul-06 14:50 200 6 gusting 6 27.8
2020-Jul-06 14:45 195 6 gusting 7 27.2
2020-Jul-06 14:40 193 4 gusting 7 27.2
2020-Jul-06 14:35 195 5 gusting 6 27.2
2020-Jul-06 14:30 199 6 gusting 6 27.2
2020-Jul-06 14:25 215 4 gusting 6 27.2
2020-Jul-06 14:20 190 2 gusting 6 27.2
2020-Jul-06 14:15 220 3 gusting 5 27.2
2020-Jul-06 14:10 200 2 gusting 5 27.2
2020-Jul-06 14:05 200 4 gusting 5 27.2
2020-Jul-06 14:00 213 2 gusting 6 26.7
2020-Jul-06 13:55 209 5 gusting 5 26.7
2020-Jul-06 13:50 209 4 gusting 5 26.7
2020-Jul-06 13:45 199 2 gusting 5 26.7
2020-Jul-06 13:40 216 4 gusting 6 26.7
2020-Jul-06 13:35 188 5 gusting 5 26.7
2020-Jul-06 13:30 215 4 gusting 6 26.7
2020-Jul-06 13:25 198 3 gusting 6 26.1
2020-Jul-06 13:20 200 3 gusting 7 26.1
2020-Jul-06 13:15 208 6 gusting 6 26.1
2020-Jul-06 13:10 193 4 gusting 6 25.6
2020-Jul-06 13:05 218 5 gusting 6 25.6
2020-Jul-06 13:00 222 3 gusting 6 26.1
2020-Jul-06 12:55 182 4 gusting 6 26.1
2020-Jul-06 12:50 239 4 gusting 5 26.1
2020-Jul-06 12:45 200 3 gusting 6 26.1
2020-Jul-06 12:40 210 4 gusting 6 26.1
2020-Jul-06 12:35 199 2 gusting 8 26.1
2020-Jul-06 12:30 249 6 gusting 6 26.1
2020-Jul-06 12:25 229 5 gusting 7 26.1
2020-Jul-06 12:20 223 7 gusting 6 26.1
2020-Jul-06 12:15 232 5 gusting 8 25.6
2020-Jul-06 12:10 238 4 gusting 7 25.6
2020-Jul-06 12:05 235 4 gusting 8 25.6
2020-Jul-06 12:00 230 6 gusting 8 25.6
2020-Jul-06 11:55 220 6 gusting 9 25.6
2020-Jul-06 11:50 233 5 gusting 9 25.6
2020-Jul-06 11:45 223 6 gusting 8 25.6
2020-Jul-06 11:40 249 4 gusting 9 25.6
2020-Jul-06 11:35 249 4 gusting 8 25.6
2020-Jul-06 11:30 232 6 gusting 9 25.0
2020-Jul-06 11:25 205 6 gusting 8 25.0
2020-Jul-06 11:20 225 7 gusting 10 25.0
2020-Jul-06 11:15 219 6 gusting 8 25.0
2020-Jul-06 11:10 236 7 gusting 8 25.0
2020-Jul-06 11:05 219 7 gusting 8 25.0
2020-Jul-06 11:00 233 7 gusting 8 25.0
2020-Jul-06 10:55 233 6 gusting 8 24.4
2020-Jul-06 10:50 223 7 gusting 8 24.4
2020-Jul-06 10:45 253 6 gusting 8 24.4
2020-Jul-06 10:40 230 8 gusting 8 24.4
2020-Jul-06 10:35 242 6 gusting 8 24.4
2020-Jul-06 10:30 236 7 gusting 8 24.4
2020-Jul-06 10:25 236 6 gusting 8 24.4
2020-Jul-06 10:20 232 7 gusting 8 24.4
2020-Jul-06 10:10 230 6 gusting 8 24.4
2020-Jul-06 10:05 233 7 gusting 8 23.9
2020-Jul-06 10:00 252 6 gusting 9 24.4
2020-Jul-06 09:55 235 5 gusting 8 23.9
2020-Jul-06 09:50 238 7 gusting 8 24.4
2020-Jul-06 09:45 232 7 gusting 9 23.9
2020-Jul-06 09:40 229 7 gusting 9 24.4
2020-Jul-06 09:35 210 7 gusting 9 24.4
2020-Jul-06 09:30 233 8 gusting 10 24.4
2020-Jul-06 09:25 238 6 gusting 10 24.4
2020-Jul-06 09:20 223 7 gusting 10 24.4
2020-Jul-06 09:15 238 9 gusting 10 24.4
2020-Jul-06 09:10 238 6 gusting 11 24.4
2020-Jul-06 09:05 238 6 gusting 10 24.4
2020-Jul-06 09:00 238 6 gusting 11 24.4
2020-Jul-06 08:55 229 7 gusting 10 24.4
2020-Jul-06 08:50 238 7 gusting 9 24.4
2020-Jul-06 08:45 238 7 gusting 9 24.4
2020-Jul-06 08:40 250 8 gusting 9 24.4
2020-Jul-06 08:35 242 6 gusting 10 24.4
2020-Jul-06 08:30 243 7 gusting 10 24.4
2020-Jul-06 08:25 228 8 gusting 11 24.4
2020-Jul-06 08:20 233 7 gusting 10 24.4
2020-Jul-06 08:10 232 7 gusting 8 24.4
2020-Jul-06 08:05 239 7 gusting 9 24.4
2020-Jul-06 08:00 245 6 gusting 8 24.4
2020-Jul-06 07:55 223 6 gusting 10 24.4
2020-Jul-06 07:50 225 6 gusting 9 24.4
2020-Jul-06 07:45 232 5 gusting 9 24.4
2020-Jul-06 07:40 230 8 gusting 9 24.4
2020-Jul-06 07:35 232 7 gusting 9 24.4
2020-Jul-06 07:30 233 6 gusting 9 24.4
2020-Jul-06 07:25 235 9 gusting 9 24.4
2020-Jul-06 07:20 239 7 gusting 11 25.0
2020-Jul-06 07:15 236 7 gusting 9 24.4
2020-Jul-06 07:10 208 7 gusting 10 25.0
2020-Jul-06 07:05 242 6 gusting 10 24.4
2020-Jul-06 07:00 223 7 gusting 9 25.0
2020-Jul-06 06:55 235 7 gusting 9 25.0
2020-Jul-06 06:50 230 5 gusting 8 25.0
2020-Jul-06 06:45 228 6 gusting 9 25.0
2020-Jul-06 06:40 252 6 gusting 11 25.0
2020-Jul-06 06:35 233 7 gusting 11 25.0
2020-Jul-06 06:30 233 6 gusting 8 25.0
2020-Jul-06 06:25 239 7 gusting 8 25.0
2020-Jul-06 06:20 240 6 gusting 7 25.0
2020-Jul-06 06:15 238 7 gusting 7 25.0
2020-Jul-06 06:10 246 6 gusting 7 25.0
2020-Jul-06 06:05 242 6 gusting 7 25.0
2020-Jul-06 06:00 225 6 gusting 8 25.0
2020-Jul-06 05:55 248 6 gusting 8 25.0
2020-Jul-06 05:50 230 5 gusting 7 25.0
2020-Jul-06 05:45 233 5 gusting 7 25.0
2020-Jul-06 05:40 240 6 gusting 7 25.0
2020-Jul-06 05:35 246 6 gusting 7 25.0
2020-Jul-06 05:30 223 5 gusting 7 25.0
2020-Jul-06 05:25 226 6 gusting 7 25.0
2020-Jul-06 05:20 249 6 gusting 8 25.0
2020-Jul-06 05:15 240 5 gusting 8 25.0
2020-Jul-06 05:10 255 6 gusting 7 25.0
2020-Jul-06 05:05 239 5 gusting 7 25.0
2020-Jul-06 05:00 242 6 gusting 6 25.6
2020-Jul-06 04:55 216 4 gusting 7 25.6
2020-Jul-06 04:50 233 5 gusting 7 25.6
2020-Jul-06 04:45 246 6 gusting 8 25.6
2020-Jul-06 04:40 249 6 gusting 6 25.6
2020-Jul-06 04:35 249 4 gusting 7 25.6
2020-Jul-06 04:30 243 5 gusting 6 25.6
2020-Jul-06 04:25 242 5 gusting 6 25.6
2020-Jul-06 04:20 243 4 gusting 6 25.6
2020-Jul-06 04:15 249 4 gusting 6 25.6
2020-Jul-06 04:10 261 5 gusting 7 25.6
2020-Jul-06 04:05 248 6 gusting 8 25.6
2020-Jul-06 04:00 248 6 gusting 8 26.1
2020-Jul-06 03:55 229 5 gusting 8 26.1
2020-Jul-06 03:50 235 6 gusting 9 26.1
2020-Jul-06 03:45 246 6 gusting 9 25.6
2020-Jul-06 03:40 253 6 gusting 9 25.6
2020-Jul-06 03:35 245 6 gusting 7 25.6
2020-Jul-06 03:30 246 6 gusting 8 25.6
2020-Jul-06 03:25 240 6 gusting 7 25.6
2020-Jul-06 03:20 246 7 gusting 8 25.6
2020-Jul-06 03:15 250 5 gusting 6 25.6
2020-Jul-06 03:10 233 6 gusting 6 25.6
2020-Jul-06 03:05 238 4 gusting 6 25.6
2020-Jul-06 03:00 249 3 gusting 8 25.6
2020-Jul-06 02:55 232 7 gusting 6 25.0
2020-Jul-06 02:50 226 5 gusting 7 25.0
2020-Jul-06 02:45 229 7 gusting 6 25.0
2020-Jul-06 02:40 238 4 gusting 8 25.0
2020-Jul-06 02:35 236 6 gusting 8 25.0
2020-Jul-06 02:30 228 7 gusting 8 25.6
2020-Jul-06 02:25 223 5 gusting 7 25.0
2020-Jul-06 02:20 245 6 gusting 9 25.0
2020-Jul-06 02:15 246 6 gusting 7 25.0
2020-Jul-06 02:10 230 6 gusting 7 25.0
2020-Jul-06 02:05 208 7 gusting 7 25.0
2020-Jul-06 02:00 222 5 gusting 8 25.0
2020-Jul-06 01:55 245 6 gusting 7 25.0
2020-Jul-06 01:50 223 3 gusting 8 25.0
2020-Jul-06 01:45 216 7 gusting 8 25.0
2020-Jul-06 01:40 226 6 gusting 7 25.0
2020-Jul-06 01:35 222 5 gusting 7 25.0
2020-Jul-06 01:30 225 6 gusting 6 25.0
2020-Jul-06 01:25 205 4 gusting 7 25.0
2020-Jul-06 01:20 216 6 gusting 8 25.6
2020-Jul-06 01:15 232 4 gusting 6 25.0
2020-Jul-06 01:10 220 4 gusting 7 25.6
2020-Jul-06 01:05 232 6 gusting 9 25.0
2020-Jul-06 01:00 218 6 gusting 9 25.0
2020-Jul-06 00:55 248 4 gusting 8 25.0
2020-Jul-06 00:50 228 6 gusting 10 25.0
2020-Jul-06 00:45 235 6 gusting 13 25.0
2020-Jul-06 00:40 228 12 gusting 12 25.0
2020-Jul-06 00:35 243 9 gusting 11 25.0
2020-Jul-06 00:30 240 9 gusting 12 25.0
2020-Jul-06 00:25 229 7 gusting 12 25.0
2020-Jul-06 00:20 215 8 gusting 13 25.0
2020-Jul-06 00:15 199 10 gusting 12 25.0
2020-Jul-06 00:10 202 7 gusting 13 25.6
2020-Jul-06 00:05 208 10 gusting 13 25.6
2020-Jul-06 00:00 222 7 gusting 15 25.6
2020-Jul-05 23:55 203 9 gusting 15 25.6
2020-Jul-05 23:50 215 7 gusting 14 25.6
2020-Jul-05 23:45 236 11 gusting 14 25.6
2020-Jul-05 23:40 210 9 gusting 13 25.6
2020-Jul-05 23:35 205 11 gusting 15 25.6
2020-Jul-05 23:30 210 10 gusting 15 25.6
2020-Jul-05 23:25 213 9 gusting 13 25.6
2020-Jul-05 23:20 202 7 gusting 15 25.6
2020-Jul-05 23:15 228 14 gusting 14 25.6
2020-Jul-05 23:10 230 10 gusting 14 25.6
2020-Jul-05 23:05 225 9 gusting 13 26.1
2020-Jul-05 23:00 243 13 gusting 13 26.1
2020-Jul-05 22:55 220 8 gusting 13 26.1
2020-Jul-05 22:50 248 8 gusting 16 25.6
2020-Jul-05 22:45 200 11 gusting 16 25.6
2020-Jul-05 22:40 213 9 gusting 14 26.1
2020-Jul-05 22:35 205 10 gusting 13 26.1
2020-Jul-05 22:30 202 12 gusting 16 25.6
2020-Jul-05 22:25 222 9 gusting 16 26.1
2020-Jul-05 22:20 208 12 gusting 17 25.6
2020-Jul-05 22:15 205 11 gusting 17 25.6
2020-Jul-05 22:10 209 12 gusting 14 25.6
2020-Jul-05 22:05 212 10 gusting 13 26.1
2020-Jul-05 22:00 212 7 gusting 14 26.7
2020-Jul-05 21:55 198 11 gusting 15 26.1
2020-Jul-05 21:50 222 13 gusting 16 26.1
2020-Jul-05 21:45 212 9 gusting 18 26.1
2020-Jul-05 21:40 212 11 gusting 15 26.1
2020-Jul-05 21:35 220 11 gusting 19 26.1
2020-Jul-05 21:30 222 15 gusting 17 26.1
2020-Jul-05 21:25 212 7 gusting 17 26.1
2020-Jul-05 21:20 229 17 gusting 13 26.1
2020-Jul-05 21:15 222 7 gusting 13 26.1
2020-Jul-05 21:10 220 9 gusting 17 26.1
2020-Jul-05 21:05 226 12 gusting 14 26.1
2020-Jul-05 21:00 200 10 gusting 14 25.6
2020-Jul-05 20:55 220 7 gusting 13 25.6
2020-Jul-05 20:50 220 10 gusting 12 25.6
2020-Jul-05 20:45 202 8 gusting 9 25.0
2020-Jul-05 20:40 218 6 gusting 7 24.4
2020-Jul-05 20:35 195 4 gusting 6 24.4
2020-Jul-05 20:30 189 3 gusting 9 23.9
2020-Jul-05 20:25 209 6 gusting 13 23.9
2020-Jul-05 20:20 198 8 gusting 13 23.9
2020-Jul-05 20:15 205 4 gusting 11 22.8
2020-Jul-05 20:10 243 6 gusting 11 22.2
2020-Jul-05 20:05 255 8 gusting 13 22.2
2020-Jul-05 20:00 209 8 gusting 14 22.2
2020-Jul-05 19:55 199 8 gusting 28 22.2
2020-Jul-05 19:50 313 6 gusting 19 22.8
2020-Jul-05 19:45 183
2020-Jul-05 19:40 097 5 gusting 19 24.4
2020-Jul-05 19:35 026 10 gusting 26 24.4
2020-Jul-05 19:30 011 12 gusting 12 24.4
2020-Jul-05 19:25 179 5 gusting 12 24.4
2020-Jul-05 19:20 206 6 gusting 14 25.0
2020-Jul-05 19:15 203 13 gusting 17 25.0
2020-Jul-05 19:10 208 15 gusting 18 25.6
2020-Jul-05 19:05 198 14 gusting 16 25.6
2020-Jul-05 19:00 233 13 gusting 14 26.1
2020-Jul-05 18:55 192 10 gusting 15 26.1
2020-Jul-05 18:50 195 10 gusting 16 26.7
2020-Jul-05 18:45 159 8 gusting 14 26.1
2020-Jul-05 18:40 203 12 gusting 13 26.1
2020-Jul-05 18:35 195 8 gusting 12 26.1
2020-Jul-05 18:30 193 8 gusting 15 26.1
2020-Jul-05 18:25 186 12 gusting 15 26.1
2020-Jul-05 18:20 195 14 gusting 20 26.1
2020-Jul-05 18:15 200 16 gusting 18 26.1
2020-Jul-05 18:10 196 10 gusting 18 26.7
2020-Jul-05 18:05 198 11 gusting 16 26.7
2020-Jul-05 18:00 182 10 gusting 15 27.2
2020-Jul-05 17:55 189 12 gusting 13 26.7
2020-Jul-05 17:50 198 9 gusting 16 27.2
2020-Jul-05 17:45 230 12 gusting 18 27.2
2020-Jul-05 17:40 209 10 gusting 16 26.7
2020-Jul-05 17:35 195 13 gusting 16 26.7
2020-Jul-05 17:30 185 10 gusting 18 26.1
2020-Jul-05 17:25 196 13 gusting 19 26.1
2020-Jul-05 17:20 196 15 gusting 18 26.1
2020-Jul-05 17:15 209 16 gusting 17 26.1
2020-Jul-05 17:10 205 10 gusting 17 26.7
2020-Jul-05 17:05 199 13 gusting 16 26.1
2020-Jul-05 17:00 199 12 gusting 19 26.1
2020-Jul-05 16:55 205 12 gusting 19 25.6
2020-Jul-05 16:50 196 16 gusting 17 26.1
2020-Jul-05 16:45 179 8 gusting 17 26.1
2020-Jul-05 16:40 192 15 gusting 16 26.1
2020-Jul-05 16:35 189 9 gusting 15 25.6
2020-Jul-05 16:30 199 12 gusting 17 25.6
2020-Jul-05 16:25 196 12 gusting 16 25.6
2020-Jul-05 16:20 226 6 gusting 14 25.6
2020-Jul-05 16:15 200 14 gusting 15 25.6
2020-Jul-05 16:10 210 11 gusting 13 25.6
2020-Jul-05 16:05 188 6 gusting 15 25.6
2020-Jul-05 16:00 202 9 gusting 13 26.1
2020-Jul-05 15:55 190 6 gusting 11 26.1
2020-Jul-05 15:50 203 7 gusting 12 26.1
2020-Jul-05 15:45 203 6 gusting 13 26.1
2020-Jul-05 15:40 232 9 gusting 11 26.1
2020-Jul-05 15:35 195 10 gusting 13 25.6
2020-Jul-05 15:30 205 10 gusting 11 26.1
2020-Jul-05 15:25 198 9 gusting 9 25.6
2020-Jul-05 15:20 177 5 gusting 13 26.1
2020-Jul-05 15:15 180 5 gusting 10 26.1
2020-Jul-05 15:10 186 6 gusting 10 25.6
2020-Jul-05 15:05 173 5 gusting 9 26.1
2020-Jul-05 15:00 203 6 gusting 10 25.6
2020-Jul-05 14:55 210 6 gusting 11 26.1
2020-Jul-05 14:50 213 6 gusting 8 26.1
2020-Jul-05 14:45 167 4 gusting 8 25.6
2020-Jul-05 14:40 190 6 gusting 9 26.1
2020-Jul-05 14:30 215 5 gusting 11 25.6
2020-Jul-05 14:25 177 4 gusting 8 25.6
2020-Jul-05 14:20 190 5 gusting 8 25.6
2020-Jul-05 14:15 208 8 gusting 8 25.6
2020-Jul-05 14:10 185 7 gusting 8 25.6
2020-Jul-05 14:05 186 6 gusting 8 25.6
2020-Jul-05 14:00 188 6 gusting 7 25.6
2020-Jul-05 13:55 189 6 gusting 7 25.6
2020-Jul-05 13:50 177 5 gusting 7 25.0
2020-Jul-05 13:45 212 6 gusting 7 25.6
2020-Jul-05 13:40 220 5 gusting 7 25.0
2020-Jul-05 13:35 167 5 gusting 7 25.0
2020-Jul-05 13:30 183 4 gusting 8 25.6
2020-Jul-05 13:25 157 25.6
2020-Jul-05 13:20 180 6 gusting 7 25.6
2020-Jul-05 13:15 166 4 gusting 6 25.6
2020-Jul-05 13:10 177 2 gusting 6 25.6
2020-Jul-05 13:05 205 4 gusting 6 25.6
2020-Jul-05 13:00 218 4 gusting 8 25.6
2020-Jul-05 12:55 215 5 gusting 7 25.0
2020-Jul-05 12:50 228 5 gusting 7 25.0
2020-Jul-05 12:45 229 4 gusting 7 25.0
2020-Jul-05 12:40 213 5 gusting 8 25.0
2020-Jul-05 12:35 218 7 gusting 9 24.4
2020-Jul-05 12:30 215 6 gusting 9 24.4
2020-Jul-05 12:25 212 6 gusting 8 24.4
2020-Jul-05 12:20 206 6 gusting 7 24.4
2020-Jul-05 12:15 209 6 gusting 7 24.4
2020-Jul-05 12:10 233 4 gusting 6 24.4
2020-Jul-05 12:05 209 6 gusting 7 23.9
2020-Jul-05 12:00 220 7 gusting 8 23.9
2020-Jul-05 11:55 216 7 gusting 7 23.9
2020-Jul-05 11:50 210 6 gusting 8 23.9
2020-Jul-05 11:45 209 7 gusting 7 23.9
2020-Jul-05 11:40 218 6 gusting 7 23.9
2020-Jul-05 11:35 195 5 gusting 6 23.3
2020-Jul-05 11:30 209 5 gusting 7 23.3
2020-Jul-05 11:25 222 5 gusting 6 23.3
2020-Jul-05 11:20 218 4 gusting 6 23.3
2020-Jul-05 11:15 209 5 gusting 6 23.3
2020-Jul-05 11:10 210 5 gusting 6 23.3
2020-Jul-05 11:05 213 23.3
2020-Jul-05 11:00 230 4 gusting 7 23.3
2020-Jul-05 10:55 232 5 gusting 6 23.3
2020-Jul-05 10:50 185 3 gusting 6 23.3
2020-Jul-05 10:45 223 5 gusting 6 23.3
2020-Jul-05 10:40 226 5 gusting 6 22.8
2020-Jul-05 10:35 229 3 gusting 3 22.8
2020-Jul-05 10:30 215 2 gusting 6 22.2
2020-Jul-05 10:25 235 5 gusting 5 22.2
2020-Jul-05 10:20 235 2 gusting 4 22.2
2020-Jul-05 10:15 242 22.2
2020-Jul-05 10:10 250 3 gusting 5 22.2
2020-Jul-05 10:05 271 3 gusting 6 22.2
2020-Jul-05 10:00 265 6 gusting 5 22.2
2020-Jul-05 09:55 242 4 gusting 5 22.8
2020-Jul-05 09:50 253 3 22.8
2020-Jul-05 09:45 249 22.8
2020-Jul-05 09:40 249 22.8
2020-Jul-05 09:35 249 22.8
2020-Jul-05 09:30 249 22.8
2020-Jul-05 09:25 249 22.8
2020-Jul-05 09:20 249 22.8
2020-Jul-05 09:15 268 2 gusting 6 22.8
2020-Jul-05 09:10 245 5 gusting 6 22.8
2020-Jul-05 09:05 232 3 gusting 6 22.8
2020-Jul-05 09:00 213 3 gusting 6 22.8
2020-Jul-05 08:55 198 6 gusting 6 22.8
2020-Jul-05 08:50 219 4 gusting 6 22.8
2020-Jul-05 08:45 223 6 gusting 5 22.8
2020-Jul-05 08:40 213 2 gusting 8 22.8
2020-Jul-05 08:35 225 6 gusting 8 22.8
2020-Jul-05 08:30 213 6 gusting 7 22.8
2020-Jul-05 08:25 219 6 gusting 6 22.8
2020-Jul-05 08:20 225 3 gusting 6 22.8
2020-Jul-05 08:15 213 4 gusting 7 22.8
2020-Jul-05 08:10 203 5 gusting 7 22.8
2020-Jul-05 08:05 176 4 gusting 8 22.8
2020-Jul-05 08:00 219 5 gusting 8 22.8
2020-Jul-05 07:55 220 5 gusting 9 22.8
2020-Jul-05 07:50 222 5 gusting 6 22.8
2020-Jul-05 07:45 219 5 gusting 6 22.8
2020-Jul-05 07:40 230 5 gusting 7 22.8
2020-Jul-05 07:35 238 3 gusting 6 22.8
2020-Jul-05 07:30 222 6 gusting 6 22.8
2020-Jul-05 07:25 210 5 gusting 6 22.8
2020-Jul-05 07:20 223 3 gusting 6 22.8
2020-Jul-05 07:15 210 5 gusting 7 22.8
2020-Jul-05 07:10 195 5 gusting 6 22.8
2020-Jul-05 07:05 220 4 gusting 6 22.8
2020-Jul-05 07:00 212 6 gusting 6 22.8
2020-Jul-05 06:55 215 4 gusting 6 22.8
2020-Jul-05 06:50 196 22.8
2020-Jul-05 06:45 186 4 gusting 5 22.8
2020-Jul-05 06:40 163 22.8
2020-Jul-05 06:35 198 4 gusting 4 22.8
2020-Jul-05 06:30 169 22.8
2020-Jul-05 06:25 188 3 gusting 6 22.8
2020-Jul-05 06:20 183 6 gusting 6 22.8
2020-Jul-05 06:15 180 3 gusting 5 22.8
2020-Jul-05 06:10 210 3 gusting 5 22.8
2020-Jul-05 06:05 180 2 gusting 6 22.8
2020-Jul-05 06:00 147 2 gusting 6 22.8
2020-Jul-05 05:55 188 22.8
2020-Jul-05 05:50 113 22.8
2020-Jul-05 05:45 129 2 gusting 4 22.8
2020-Jul-05 05:40 175 1 22.8
2020-Jul-05 05:35 166 22.8
2020-Jul-05 05:30 166 22.8
2020-Jul-05 05:25 170 22.8
2020-Jul-05 05:20 153 5 gusting 6 22.8
2020-Jul-05 05:15 162 4 gusting 6 22.8
2020-Jul-05 05:10 153 5 gusting 6 22.8
2020-Jul-05 05:05 159 4 gusting 6 22.8
2020-Jul-05 05:00 153 2 gusting 4 22.8
2020-Jul-05 04:55 173 2 gusting 6 22.8
2020-Jul-05 04:50 163 22.8
2020-Jul-05 04:45 157 6 gusting 6 22.8
2020-Jul-05 04:40 156 3 gusting 6 22.8
2020-Jul-05 04:35 152 5 gusting 8 22.8
2020-Jul-05 04:30 157 22.8
2020-Jul-05 04:25 180 4 gusting 6 22.8
2020-Jul-05 04:20 165 2 gusting 6 22.8
2020-Jul-05 04:15 155 4 gusting 6 22.8
2020-Jul-05 04:10 155 4 gusting 6 22.8
2020-Jul-05 04:05 147 4 gusting 6 22.8
2020-Jul-05 04:00 150 4 gusting 5 22.8
2020-Jul-05 03:55 177 22.8
2020-Jul-05 03:50 149 2 gusting 6 22.8
2020-Jul-05 03:45 157 4 gusting 6 22.8
2020-Jul-05 03:40 147 2 gusting 6 22.8
2020-Jul-05 03:35 172 3 gusting 6 22.8
2020-Jul-05 03:30 160 22.8
2020-Jul-05 03:25 155 2 gusting 5 22.8
2020-Jul-05 03:20 104 2 gusting 5 22.8
2020-Jul-05 03:15 153 3 gusting 5 22.8
2020-Jul-05 03:10 185 22.8
2020-Jul-05 03:05 147 22.8
2020-Jul-05 03:00 160 22.8
2020-Jul-05 02:55 160 22.8
2020-Jul-05 02:50 156 22.8
2020-Jul-05 02:45 156 22.8
2020-Jul-05 02:40 196 3 gusting 6 22.8
2020-Jul-05 02:35 156 22.8
2020-Jul-05 02:30 136 22.8
2020-Jul-05 02:25 165 22.8
2020-Jul-05 02:20 165 22.8
2020-Jul-05 02:15 165 22.8
2020-Jul-05 02:10 165 22.8
2020-Jul-05 02:05 165 22.8
2020-Jul-05 02:00 165 22.8
2020-Jul-05 01:55 165 22.8
2020-Jul-05 01:50 165 22.8
2020-Jul-05 01:45 146 22.8
2020-Jul-05 01:40 166 2 22.8
2020-Jul-05 01:35 130 22.8
2020-Jul-05 01:30 130 22.8
2020-Jul-05 01:25 130 23.3
2020-Jul-05 01:20 130 22.8
2020-Jul-05 01:05 153 23.3
2020-Jul-05 01:00 153 23.3
2020-Jul-05 00:55 153 23.3
2020-Jul-05 00:50 153 23.3
2020-Jul-05 00:45 153 2 gusting 2 23.3
2020-Jul-05 00:40 175 2 gusting 6 23.3
2020-Jul-05 00:35 203 2 gusting 5 23.3
2020-Jul-05 00:30 195 23.3
2020-Jul-05 00:25 195 23.3
2020-Jul-05 00:15 165 3 gusting 5 23.3
2020-Jul-05 00:10 167 3 gusting 5 23.3
2020-Jul-05 00:05 155 5 gusting 6 23.3
2020-Jul-05 00:00 169 3 gusting 4 23.3
2020-Jul-04 23:55 156 23.3
2020-Jul-04 23:50 156 23.3
2020-Jul-04 23:45 196 23.3
2020-Jul-04 23:40 180 2 gusting 5 23.9
2020-Jul-04 23:35 143 3 23.3
2020-Jul-04 23:30 125 23.3
2020-Jul-04 23:25 125 23.9
2020-Jul-04 23:20 106 23.3
2020-Jul-04 23:15 106 23.3
2020-Jul-04 23:10 106 23.3
2020-Jul-04 23:05 059 2 gusting 5 23.3
2020-Jul-04 23:00 113 4 gusting 5 23.9
2020-Jul-04 22:55 110 4 gusting 5 23.9
2020-Jul-04 22:50 089 4 gusting 5 23.9
2020-Jul-04 22:45 130 2 gusting 5 23.9
2020-Jul-04 22:40 107 3 gusting 5 23.9
2020-Jul-04 22:35 120 23.9
2020-Jul-04 22:30 083 2 gusting 5 23.9
2020-Jul-04 22:25 123 3 gusting 5 23.9
2020-Jul-04 22:20 086 2 gusting 6 23.9
2020-Jul-04 22:15 104 3 gusting 5 23.9
2020-Jul-04 22:10 122 3 gusting 5 23.9
2020-Jul-04 22:05 112 3 gusting 6 23.9
2020-Jul-04 22:00 077 24.4
2020-Jul-04 21:55 107 2 gusting 7 23.9
2020-Jul-04 21:50 064 6 gusting 8 23.9
2020-Jul-04 21:45 093 5 gusting 7 23.9
2020-Jul-04 21:40 094 2 gusting 7 24.4
2020-Jul-04 21:35 119 5 gusting 7 23.9
2020-Jul-04 21:30 037 5 gusting 8 23.9
2020-Jul-04 21:25 116 4 gusting 8 23.9
2020-Jul-04 21:20 066 5 gusting 7 24.4
2020-Jul-04 21:15 130 3 gusting 7 24.4
2020-Jul-04 21:10 099 3 gusting 9 24.4
2020-Jul-04 21:05 089 6 gusting 8 24.4
2020-Jul-04 21:00 097 6 gusting 9 23.9
2020-Jul-04 20:55 073 6 gusting 10 23.9
2020-Jul-04 20:50 110 4 gusting 9 23.9
2020-Jul-04 20:45 062 6 gusting 8 23.9
2020-Jul-04 20:40 072 6 gusting 9 24.4
2020-Jul-04 20:35 090 3 gusting 11 24.4
2020-Jul-04 20:30 115 4 gusting 10 24.4
2020-Jul-04 20:25 046 6 gusting 11 24.4
2020-Jul-04 20:20 070 7 gusting 10 24.4
2020-Jul-04 20:15 059 4 gusting 9 24.4
2020-Jul-04 20:10 073 6 gusting 8 24.4
2020-Jul-04 20:05 112 4 gusting 8 24.4
2020-Jul-04 20:00 090 6 gusting 9 24.4
2020-Jul-04 19:55 093 6 gusting 10 24.4
2020-Jul-04 19:50 125 6 gusting 10 24.4
2020-Jul-04 19:45 069 6 gusting 9 24.4
2020-Jul-04 19:40 070 7 gusting 11 24.4
2020-Jul-04 19:35 076 9 gusting 10 24.4
2020-Jul-04 19:30 069 8 gusting 10 24.4
2020-Jul-04 19:25 079 7 gusting 11 24.4
2020-Jul-04 19:20 069 8 gusting 8 25.0
2020-Jul-04 19:15 092 6 gusting 8 24.4
2020-Jul-04 19:05 087 4 gusting 7 25.0
2020-Jul-04 19:00 097 4 gusting 6 25.0
2020-Jul-04 18:55 073 6 gusting 9 25.0
2020-Jul-04 18:50 080 7 gusting 11 25.0
2020-Jul-04 18:45 079 7 gusting 11 24.4
2020-Jul-04 18:40 069 9 gusting 10 24.4
2020-Jul-04 18:35 069 7 gusting 9 24.4
2020-Jul-04 18:30 059 4 gusting 11 25.0
2020-Jul-04 18:25 066 6 gusting 10 24.4
2020-Jul-04 18:20 077 6 gusting 10 25.0
2020-Jul-04 18:15 083 6 gusting 13 25.0
2020-Jul-04 18:10 077 8 gusting 11 24.4
2020-Jul-04 18:05 072 9 gusting 10 24.4
2020-Jul-04 18:00 067 6 gusting 9 24.4
2020-Jul-04 17:55 073 6 gusting 11 25.0
2020-Jul-04 17:50 043 4 gusting 10 25.0
2020-Jul-04 17:45 064 4 gusting 11 25.0
2020-Jul-04 17:40 062 6 gusting 11 25.0
2020-Jul-04 17:35 066 7 gusting 10 24.4
2020-Jul-04 17:30 087 4 gusting 11 25.0
2020-Jul-04 17:25 030 4 gusting 9 25.0
2020-Jul-04 17:20 031 4 gusting 9 25.0
2020-Jul-04 17:15 031 6 gusting 7 25.0
2020-Jul-04 17:10 031 4 gusting 8 24.4
2020-Jul-04 17:05 067 5 gusting 9 25.0
2020-Jul-04 17:00 009 6 gusting 8 24.4